CZ-4 DEB, 26150

Orbit data source: Space-Track

CZ-4 DEB, 26150 is space debris in SSO originally from a launch on Thu, 14 Oct 1999 UTC launched from the Taiyaun Space Center, China (TSC). Debris objects in space refer to the collection of defunct objects orbiting the Earth. Examples of debris include non-operational satellites, rocket bodies, and fragments generated from explosions, collisions, or faulty payload assembly.

Loading next visibility...
Identifier
26150, 1999-057AL
Orbit
SSO
Country
Flag of CNCN / PRC
Related business
Manufacturer
Unknown
Mission
Spacecraft
Bus & Motor
Unknown
Mass
Unknown
Launch date (UTC)
1999-10-14 (27 years ago)
Launch vehicle
Unknown
Launch site
Taiyaun Space Center, China (TSC)
Object type
Payload
Rocket body
Debris
Shape & HBR
Unknown shape, 0.1 m
Radar Cross Section
Small (<0.1 m²)

Expand to show TLE details & history
Last TLE update: 1 day ago

TLE from 1 day ago
0 CZ-4 DEB
1 26150U 99057AL  26127.16326400  .00001523  00000-0  93626-3 0  9994
2 26150  99.0952 207.4826 0340692 187.6309 202.4707 13.81944872309738
Epoch: 2026-05-07T03:55Z
TLE epoch observation values (Epoch: 2026-05-07T03:55:06.009Z)
Latitude
28.31454°
Longitude
-81.22881°
Altitude
1,192.591 km
Speed
7.144 km/s
True Right ascension
13h 30m 14s
True Declination
28° 10' 46"
Sunlit
Object was in full shadow at epoch
Visualization orbit readout
Latitude
Unknown
Longitude
Unknown
Altitude
Unknown
Speed
Unknown
Apparent Right ascension
Unknown
Apparent Declination
Unknown
Sunlit
N/A
Visualization observer readout
Local Sidereal Time
15:31:38
Azimuth
Unknown
Elevation
Unknown
Doppler factor
Unknown
Orbital elements
Apogee altitude
1,204.028 km
Perigee altitude
704.412 km
Semi-major axis
7,332.357 km
Eccentricity
0.03407
Inclination
99.0952°
RAAN
207.4826°
Arg. of periapsis
187.6309°
True anomaly
201.03526°
Mean anomaly
202.4707°
Eccentric anomaly
201.74744°
Mean motion
3.45683 °/min
Orbital period
104.14 mins
BSTAR
0.00093626
Loading maneuver chart data...
Computing Atmospheric mass density...
Loading historical data...
Loading historical data...
Loading historical data...
Loading historical data...
Loading historical data...
Loading historical data...
Loading historical data...

Documentation

Showing up to 5 results
|